This demonstration page uses our WeatherBlox Daily Observations layout. Learn more.

Left ArrowRight Arrow

39.92423, -83.80882

Hourly Observations for February 18, 2019

Temp ( °F °C ) Dew Point ( °F °C ) Humidity (%) Winds ( mph kmh ) Pressure ( in mb ) Visibility ( mi km ) Precip ( " mm )
12:21 am 00:21 Cloudy with Mist and Fog 30 -1 28 -2 93 93 W 12 19 29.91 1013 6 9.65604 N/A
12:56 am 00:56 Cloudy with Mist and Fog 30 -1.1 29 -1.7 96 96 W 12 19 29.9 1013 6 9.65604 N/A
1:56 am 01:56 Cloudy with Mist and Fog 30 -1.1 30 -1.1 100 100 WNW 9 15 29.94 1014 3 4.82802 N/A
2:16 am 02:16 Cloudy with Light Snow 30 -1 30 -1 100 100 W 12 19 29.96 1014 2.5 4.02335 N/A
2:48 am 02:48 Cloudy with Mist and Fog 30 -1 30 -1 100 100 W 9 15 29.98 1015 3 4.82802 N/A
2:56 am 02:56 Cloudy with Mist and Fog 30 -1.1 30 -1.1 100 100 W 9 15 29.96 1015 3 4.82802 N/A
3:32 am 03:32 Cloudy with Light Snow 30 -1 30 -1 100 100 W 15 24 29.99 1016 7 11.26538 N/A
3:41 am 03:41 Cloudy 30 -1 28 -2 93 93 W 13 20 30 1016 9 14.48406 N/A
3:56 am 03:56 Cloudy 30 -1.1 29 -1.7 96 96 W 15 24 29.98 1015 10 16.0934 N/A
4:33 am 04:33 Cloudy 30 -1 28 -2 93 93 W 12 19 30.01 1016 10 16.0934 N/A
4:56 am 04:56 Cloudy with Light Snow 30 -1.1 28 -2.2 92 92 W 12 19 30 1016 10 16.0934 N/A
5:05 am 05:05 Cloudy with Light Snow 28 -2 28 -2 100 100 WNW 10 17 30.03 1017 5 8.0467 N/A
5:13 am 05:13 Cloudy with Light Snow 28 -2 28 -2 100 100 WNW 10 17 30.03 1017 4 6.43736 N/A
5:56 am 05:56 Cloudy with Light Snow 29 -1.7 29 -1.7 100 100 WNW 6 9 30.03 1017 5 8.0467 N/A
6:32 am 06:32 Cloudy with Light Snow 30 -1 28 -2 93 93 W 13 20 30.06 1018 9 14.48406 N/A
6:56 am 06:56 Cloudy with Light Snow 29 -1.7 28 -2.2 96 96 WNW 12 19 30.05 1018 9 14.48406 N/A
7:56 am 07:56 Cloudy with Light Snow 29 -1.7 27 -2.8 92 92 W 14 22 30.09 1019 9 14.48406 N/A
8:56 am 08:56 Cloudy with Light Snow 29 -1.7 27 -2.8 92 92 W 13 20 30.14 1021 9 14.48406 N/A
9:56 am 09:56 Cloudy with Light Snow 30 -1.1 28 -2.2 92 92 W 13 20 30.17 1022 6 9.65604 N/A
10:56 am 10:56 Cloudy with Light Snow 30 -1.1 28 -2.2 92 92 W 15 24 30.2 1023 6 9.65604 N/A
11:12 am 11:12 Cloudy with Light Snow 30 -1 28 -2 93 93 WSW 14 22 30.23 1024 7 11.26538 N/A
11:49 am 11:49 Cloudy with Light Snow 30 -1 28 -2 93 93 W 16 26 30.26 1025 9 14.48406 N/A
11:56 am 11:56 Windy with Snow Likely 30 -1.1 28 -2.2 92 92 W 20 31 30.24 1024 9 14.48406 N/A
12:29 pm 12:29 Cloudy with Light Snow 28 -2 27 -3 93 93 WNW 15 24 30.28 1025 6 9.65604 N/A
12:40 pm 12:40 Cloudy with Light Snow 28 -2 27 -3 93 93 WNW 12 19 30.28 1025 7 11.26538 N/A
12:56 pm 12:56 Cloudy with Light Snow 28 -2.2 26 -3.3 92 92 WNW 12 19 30.27 1025 8 12.87472 N/A
1:12 pm 13:12 Cloudy with Light Snow 28 -2 27 -3 93 93 WNW 9 15 30.29 1026 8 12.87472 N/A
1:45 pm 13:45 Cloudy with Light Snow 28 -2 27 -3 93 93 WNW 12 19 30.3 1026 7 11.26538 N/A
1:56 pm 13:56 Cloudy with Light Snow 28 -2.2 26 -3.3 92 92 WNW 12 19 30.29 1026 8 12.87472 N/A
2:08 pm 14:08 Cloudy with Light Snow 28 -2 27 -3 93 93 NW 12 19 30.32 1027 6 9.65604 N/A
2:30 pm 14:30 Cloudy with Light Snow 28 -2 27 -3 93 93 NW 9 15 30.33 1027 4 6.43736 N/A
2:56 pm 14:56 Cloudy with Light Snow 28 -2.2 25 -3.9 88 88 NW 12 19 30.32 1027 7 11.26538 N/A
3:56 pm 15:56 Cloudy with Light Snow 28 -2.2 25 -3.9 88 88 NW 10 17 30.35 1028 8 12.87472 N/A
4:56 pm 16:56 Cloudy with Light Snow 27 -2.8 24 -4.4 89 89 NW 12 19 30.39 1029 7 11.26538 N/A
5:56 pm 17:56 Cloudy 27 -2.8 23 -5 85 85 NW 9 15 30.42 1030 10 16.0934 N/A
6:56 pm 18:56 Cloudy 26 -3.3 22 -5.6 84 84 NW 8 13 30.47 1032 10 16.0934 N/A
7:56 pm 19:56 Cloudy 25 -3.9 21 -6.1 85 85 WNW 7 11 30.5 1033 10 16.0934 N/A
8:56 pm 20:56 Cloudy 25 -3.9 23 -5 92 92 WNW 3 6 30.52 1034 10 16.0934 N/A
9:56 pm 21:56 Cloudy 25 -3.9 22 -5.6 88 88 NW 5 7 30.54 1034 10 16.0934 N/A
10:56 pm 22:56 Cloudy 25 -3.9 22 -5.6 88 88 N N/A 30.55 1034 10 16.0934 N/A
11:56 pm 23:56 Cloudy 26 -3.3 22 -5.6 84 84 N N/A 30.55 1035 10 16.0934 N/A

Powered by AerisWeather